This is the latest recevied weather packets stored in our database for station/object WB8SKP-WX. If no packets are shown the sender has not sent any weather packets the latest 10 day(s).
| Time | Temp. | Humidity | Pressure | Rain* | Wind** | Luminosity | Snow |
|---|---|---|---|---|---|---|---|
| 1777541137 | 10.56° C | 78% | 997.3 hPa | 0 mm | - | - | - |
| 1777539907 | 11.11° C | 79% | 997.3 hPa | 0 mm | - | - | - |
| 1777538707 | 11.11° C | 78% | 997.2 hPa | 0 mm | - | - | - |
| 1777537531 | 11.67° C | 78% | 997.1 hPa | 0 mm | - | - | - |
| 1777537478 | 11.67° C | 78% | 997.1 hPa | 0 mm | - | - | - |
| 1777536247 | 12.22° C | 76% | 997 hPa | 0 mm | - | - | - |
| 1777535047 | 12.78° C | 75% | 997.2 hPa | 0 mm | - | - | - |
| 1777533868 | 12.78° C | 74% | 997.3 hPa | 0 mm | - | - | - |
| 1777533817 | 12.78° C | 74% | 997.3 hPa | 0 mm | - | - | - |
| 1777532617 | 13.33° C | 73% | 997.1 hPa | 0 mm | - | - | - |
| 1777531417 | 13.33° C | 73% | 997.2 hPa | 0 mm | - | - | - |
| 1777530217 | 13.89° C | 70% | 997.3 hPa | 0 mm | - | - | - |
| 1777528987 | 13.89° C | 70% | 997.5 hPa | 0 mm | - | - | - |
| 1777527787 | 14.44° C | 70% | 997.8 hPa | 0 mm | - | - | - |
| 1777526587 | 14.44° C | 70% | 997.3 hPa | 0 mm | - | - | - |
| 1777525387 | 14.44° C | 69% | 997.4 hPa | 0 mm | - | - | - |
| 1777524187 | 14.44° C | 70% | 997.3 hPa | 0 mm | - | - | - |
| 1777522957 | 15° C | 70% | 997 hPa | 0 mm | - | - | - |
| 1777521757 | 15° C | 70% | 996.8 hPa | 0 mm | - | - | - |
| 1777520557 | 15.56° C | 70% | 996.4 hPa | 0 mm | - | - | - |
| 1777519327 | 15.56° C | 72% | 996.2 hPa | 0 mm | - | - | - |
| 1777518127 | 16.11° C | 70% | 996.7 hPa | 0 mm | - | - | - |
| 1777516927 | 16.11° C | 69% | 997.3 hPa | 0 mm | - | - | - |
| 1777515727 | 16.11° C | 72% | 996.9 hPa | 0 mm | - | - | - |
| 1777514527 | 16.11° C | 72% | 996.7 hPa | 0 mm | - | - | - |
* Rain latest hour (hover to see other rain measurements)
** Current wind speed in m/s (hover to see current wind gust speed)